Preview of NWS' New Version of Forecast
This preview is not operational and should not be used for support decisions.

Regional Weather Roundup (RWR)

Issued by Gray - Portland, ME (GYX)

                            
000
ASUS41 KGYX 181310
RWRGYX
WEATHER ROUNDUP FOR MAINE AND NEW HAMPSHIRE
NATIONAL WEATHER SERVICE GRAY ME
900 AM EDT THU JUL 18 2019

MEZ002-005-006-010-012-015-018-020-021-024-026-027-029-181400-
MAINE
  
CITY           SKY/WX    TMP DP  RH WIND       PRES   REMARKS
PORTLAND       PTSUNNY   68  54  60 NE10      30.04S                  
SANFORD        CLOUDY    69  57  65 NE10      30.05R                  
BAR HARBOR     FAIR      66  56  70 N7        30.03S                  
WISCASSET      FAIR      69  54  58 VRB5      30.06R                  
ROCKLAND       FAIR      66  54  65 VRB6      30.04R                  
FRYEBURG       FAIR      70  53  54 SE8       30.07R                  
LEWISTONAUBURN FAIR      67  56  67 NE8       30.06S                  
AUGUSTA        FAIR      66  53  63 NE8       30.06R                  
WATERVILLE     FAIR      66  54  65 NE6       30.04S                  
BANGOR         FAIR      67  53  61 NE7       30.04S                  
GREENVILLE       N/A     63  50  62 N3        30.06R                  
MILLINOCKET    FAIR      67  49  52 VRB7      30.06R                  
HOULTON        FAIR      64  52  64 VRB5      30.03R                  
PRESQUE ISLE   FAIR      63  51  65 SW6       30.05R                  
FRENCHVILLE    FAIR      63  50  62 NW6       30.04R                  
CARIBOU        FAIR      64  51  62 VRB3      30.03R                  
$$

NHZ002-005-008-009-011-012-014-181400-
NEW HAMPSHIRE
  
CITY           SKY/WX    TMP DP  RH WIND       PRES   REMARKS
PORTSMOUTH     CLOUDY    69  53  55 NE10G17   30.02R                  
ROCHESTER      CLOUDY    69  58  67 NE7       30.04R                  
NASHUA         LGT RAIN  68  63  84 NE6       30.03R                  
MANCHESTER     CLOUDY    69  60  73 NE6       30.02R                  
CONCORD          N/A    N/A N/A N/A MISG      30.04R                  
LACONIA        CLOUDY    68  58  70 NE10      30.05R                  
PLYMOUTH         N/A    N/A N/A N/A MISG      30.04S                  
BERLIN         FAIR      65  57  75 SE3       30.06F                  
WHITEFIELD     FAIR      69  59  70 E10       30.04S                  
JAFFREY        CLOUDY    67  63  87 E5        30.05R                  
KEENE          CLOUDY    70  64  81 NE5       30.02R                  
LEBANON        CLOUDY    69  63  81 N5        30.02S                  
MT WASHINGTON  PTSUNNY   55  43  62 W13         N/A                   
$$

VTZ005-007-008-181400-
VERMONT
  
CITY           SKY/WX    TMP DP  RH WIND       PRES   REMARKS
ST JOHNSBURY     N/A     68  60  75 MISG      30.02S                  
MONTPELIER     FAIR      63  60  90 SE3       30.08S                  
BURLINGTON     FAIR      71  60  68 N6        29.99F                  
$$

MAZ007-012-024-CTZ003-RIZ002-NYZ038-NYZ072-181400-
SOUTHERN NEW ENGLAND AND NY
  
CITY           SKY/WX    TMP DP  RH WIND       PRES   REMARKS
BOSTON         CLOUDY    69  61  75 NE16G24   30.00R                  
WORCESTER      LGT RAIN  66  64  93 NE9G17    30.02R                  
NANTUCKET      LGT RAIN  74  72  93 CALM      29.94S                  
PROVIDENCE     CLOUDY    76  72  87 CALM      29.94S                  
HARTFORD       CLOUDY    74  71  91 N6        29.95R                  
ALBANY         CLOUDY    73  68  84 NE6       29.97S                  
NEW YORK CITY  HVY RAIN  75  72  90 NE8       29.90S FOG              
$$

ANZ081-ANZ082-ANZ150-NHZ014-MEZ023>029-181400-
COASTAL MARINE OBSERVATIONS
  
STATION/POSITION TIME  TEMP    WIND        PRES    WAVE
                       AIR SEA DIR/SP/G            HT/PER
                 (UTC) (F)     (DEG/KT/KT) (MB)    (FT/S)
ISLE OF SHOALS   1200   65      30/ 19/ 21 1015.4R
JEFFREYS LEDGE   1238      66                N/A     5/ 5
CASHES LEDGE BUO 1250   59 57   30/ 16/ 19 1015.9R   3/ 4
GEORGES BANK BUO 1250   63 60   CALM  /  2 1014.9R   4/ 6
$$

.............KEY..............
   WCI - WIND CHILL
   TC  - TEMPERATURE IN CELSIUS
   VSB - VISIBILITY IN MILES
   HX  - HEAT INDEX
   FAIR- INDICATES FEW OR NO CLOUDS BELOW 12,000 FT, WITH NO 
         SIGNIFICANT WEATHER AND/OR OBSTRUCTIONS TO VISIBILITY.